Wetbulb
62.34 62.33 61.84 61.46 61.42 61.26 61.66 61.34 60.72 60.28 59.95 59.69 59.62 59.54 59.86 60.07 60.12 59.50 58.73 58.34 58.40 58.57 58.12 57.87 58.38 58.25 57.53 57.68 57.50 54.61 59.28 60.37 54.58 53.53 53.42 52.91 51.20 49.87 47.69 48.60 48.62 46.90 47.85 48.05 48.68 48.28 47.99
61.92 61.68 61.42 61.18 61.23 61.19 61.68 61.34 60.73 59.82 59.36 59.31 58.99 59.07 59.16 59.32 59.49 59.16 58.73 58.13 58.06 58.06 57.72 57.75 58.14 57.13 58.21 52.54 61.94 60.06 56.92 56.30 53.59 53.38 53.08 53.50 51.55 51.90 49.23 49.19 47.92 49.18 48.24 47.74 48.54 48.16 48.26
60.13 61.28 61.10 60.72 60.48 60.65 60.75 60.38 60.18 60.06 59.57 59.44 58.98 58.50 58.42 58.77 58.67 58.61 58.42 57.90 57.82 57.83 57.87 57.56 58.02 57.65 55.75 55.55 62.79 60.92 57.87 56.34 54.65 53.88 52.60 53.95 53.86 51.32 51.64 48.88 50.95 48.82 45.72 47.55 48.30 48.18 46.99
58.02 58.39 58.85 58.62 59.35 59.47 59.48 59.72 58.80 58.00 57.68 57.77 58.09 58.02 57.75 57.61 57.51 57.38 57.66 57.29 57.17 57.79 57.85 57.68 57.62 56.00 53.06 62.34 63.72 60.89 59.71 56.93 56.06 55.09 54.02 54.43 54.47 52.12 50.80 52.18 49.52 46.98 47.01 42.65 47.83 47.39 46.70
57.35 57.24 57.48 57.45 57.69 57.44 57.54 57.46 57.26 57.07 56.69 56.45 56.63 56.99 56.89 56.48 56.54 56.38 56.32 56.80 57.31 57.77 58.09 57.51 56.79 55.66 52.91 59.49 58.78 60.35 60.73 55.52 55.06 54.64 54.85 53.99 53.05 50.81 51.16 46.79 45.09 46.79 41.81 44.05 44.51 47.55 46.49
57.27 57.33 57.36 57.44 57.23 57.01 56.79 56.48 56.04 56.10 55.94 55.54 55.23 55.45 56.83 56.54 56.06 55.55 55.27 56.42 58.67 57.98 59.62 60.61 57.52 52.15 56.01 54.35 56.47 55.30 57.58 56.87 53.02 53.49 52.38 51.92 50.69 47.85 47.98 45.81 39.37 42.56 43.05 44.24 44.00 46.39 46.50
57.27 57.33 57.27 57.10 57.05 57.05 56.76 56.49 55.96 55.30 55.01 55.24 54.86 54.33 55.96 56.38 56.60 55.77 56.38 59.20 55.85 55.57 56.71 53.55 54.32 53.14 56.17 57.82 55.69 52.92 55.41 53.49 52.81 51.76 47.23 50.43 45.54 43.13 45.95 46.50 46.65 44.81 42.90 41.13 43.53 46.55 45.47
57.32 57.31 57.09 56.97 56.98 57.08 56.94 56.84 55.82 54.95 54.69 54.46 53.94 53.60 54.49 56.56 56.70 55.61 56.63 55.43 55.78 53.84 47.83 55.02 55.95 56.10 57.71 58.36 53.43 55.10 55.13 49.06 49.54 46.47 49.86 46.81 42.72 46.75 47.54 46.45 44.54 43.31 41.03 40.75 44.03 46.17 45.16
56.45 56.57 56.74 56.54 56.54 56.70 57.00 56.71 55.62 54.69 54.46 54.22 53.48 53.16 53.40 56.06 54.36 54.61 57.76 56.80 59.58 57.97 48.16 49.92 53.69 53.59 54.41 56.29 51.51 52.69 55.76 51.23 48.35 46.74 46.84 43.38 45.32 47.49 45.31 44.33 42.80 42.26 41.03 41.44 41.35 43.72 44.10
55.21 55.22 55.61 56.44 56.42 56.06 56.08 56.63 55.80 54.77 54.14 53.34 52.57 51.99 52.82 53.09 53.24 56.79 54.76 59.05 59.02 58.48 41.49 44.77 48.43 51.32 53.86 54.01 49.43 55.13 55.53 52.78 48.47 44.59 45.24 44.09 47.07 45.57 44.33 42.73 43.18 39.47 44.42 42.91 41.44 39.71 34.76
54.26 54.48 54.63 55.14 54.96 54.04 53.94 55.64 55.11 54.79 54.16 53.46 52.24 51.74 53.28 53.16 56.37 53.75 55.18 60.08 58.35 54.79 29.43 46.55 48.32 52.90 51.43 49.11 48.37 48.69 54.26 51.01 45.34 45.47 44.73 42.02 44.31 43.00 41.98 42.45 43.93 40.81 44.03 41.91 41.31 38.52 38.34
53.56 53.85 54.38 54.36 54.08 53.28 53.54 54.45 54.26 53.97 53.81 53.03 51.80 51.46 52.90 53.46 55.04 57.42 58.46 57.21 54.90 37.83 28.54 42.22 46.72 44.78 45.17 47.06 46.70 47.83 48.22 50.26 49.52 44.82 45.66 43.91 47.27 44.74 43.85 44.68 43.62 44.19 41.29 41.19 41.64 39.93 32.74
52.52 52.97 53.40 53.85 53.46 53.05 53.32 53.77 53.12 52.62 52.88 52.70 51.74 51.17 52.15 54.81 50.51 57.28 57.21 52.66 35.76 30.74 43.48 40.58 41.85 43.95 43.80 42.98 44.12 44.22 43.37 42.01 40.29 37.08 38.16 42.01 42.52 44.75 44.60 40.96 43.68 42.49 38.76 32.21 31.37 32.61 31.38
51.59 52.15 52.76 52.83 52.93 52.76 52.76 53.02 52.09 51.71 51.81 51.58 51.48 50.39 51.26 52.68 54.99 55.95 54.05 43.07 30.81 37.56 39.11 44.22 42.02 42.80 40.63 43.60 42.39 42.37 42.04 39.78 43.71 42.18 38.64 36.33 34.83 41.76 44.09 41.07 39.58 41.40 39.60 32.28 24.78 26.53 30.82
50.47 51.41 51.90 52.33 52.41 52.51 52.41 52.52 51.76 51.25 50.94 50.74 51.00 49.54 50.41 52.96 54.47 52.95 47.08 33.79 33.76 37.95 42.66 41.42 41.27 38.28 38.44 42.50 41.41 40.50 40.18 39.96 42.71 43.17 36.59 35.65 35.98 43.75 43.80 43.83 41.48 38.23 35.44 40.86 34.47 35.55 30.33
48.45 49.98 51.24 51.52 51.76 51.94 51.94 51.85 51.72 51.07 50.88 50.65 46.74 47.79 47.53 54.27 53.85 48.71 40.47 35.20 39.14 43.70 44.72 43.39 37.44 39.66 35.79 39.62 38.38 39.37 39.17 42.65 41.96 43.76 44.42 39.84 34.26 41.29 42.70 43.41 42.70 39.85 41.32 33.52 35.97 24.70 23.53
46.85 48.23 49.93 50.64 51.23 51.41 51.35 51.42 51.30 50.92 50.58 50.81 47.55 42.03 50.21 54.26 51.96 42.43 33.82 36.12 40.35 44.95 45.85 41.49 39.63 39.02 39.43 38.84 40.05 38.60 38.93 41.82 43.67 42.81 43.36 41.16 38.70 36.57 40.76 38.22 36.63 37.36 36.14 37.79 36.52 33.83 26.73
46.80 47.44 48.34 49.47 50.13 50.78 51.30 51.15 51.09 50.52 49.99 48.88 44.98 37.23 50.86 49.97 38.28 38.05 34.92 39.54 42.23 42.07 46.01 43.21 43.26 41.96 40.31 40.94 38.65 38.69 37.97 40.63 45.09 43.95 38.32 41.36 38.91 32.33 35.59 41.26 42.49 40.46 37.72 37.69 31.28 29.32 32.75
46.50 46.76 47.31 48.41 49.16 49.72 50.26 50.72 50.70 50.19 49.75 47.53 41.10 41.47 47.66 47.91 32.62 34.29 37.90 38.25 41.45 42.16 42.56 41.58 40.63 42.83 43.66 41.03 38.12 40.15 41.25 44.01 44.41 42.89 39.68 41.74 35.47 29.01 31.47 36.48 39.50 37.08 38.75 38.70 38.01 36.81 30.77
46.01 46.34 46.56 47.03 47.81 49.10 49.61 50.00 50.35 50.09 49.67 49.08 41.96 34.35 38.69 40.86 42.04 38.07 35.79 36.84 38.10 43.87 42.72 43.19 41.43 43.21 40.91 39.24 42.24 39.02 39.81 42.03 43.59 42.66 42.50 42.37 37.04 32.94 28.94 33.15 36.66 34.64 37.44 38.31 37.32 32.33 31.18
45.29 45.44 46.11 46.26 46.62 47.83 48.81 49.45 50.09 50.08 49.58 46.44 41.43 36.50 39.38 32.18 34.12 38.55 40.03 39.16 37.52 37.68 42.68 43.60 39.70 40.11 39.11 35.89 37.90 36.86 39.68 40.38 41.89 40.81 40.90 38.58 32.31 34.45 35.11 36.07 36.27 35.45 34.87 35.37 33.56 34.28 29.78
44.69 44.98 45.31 45.97 46.32 46.58 47.76 48.61 49.31 49.80 49.46 43.32 36.95 38.56 41.89 39.59 39.83 36.31 38.05 36.60 37.27 38.82 38.94 37.24 37.49 39.14 39.45 37.30 37.86 35.59 38.46 38.79 37.54 40.45 38.41 39.75 33.63 34.97 31.24 35.19 35.05 32.44 34.37 34.40 34.42 34.84 34.41
43.78 44.31 44.87 45.18 45.87 45.46 46.57 47.80 48.78 49.59 48.65 41.63 44.66 46.15 41.98 38.96 38.78 36.26 35.29 37.11 37.92 40.55 41.35 40.88 39.58 38.90 37.95 39.64 42.31 42.80 42.96 42.52 41.91 39.36 37.82 36.81 34.48 32.07 27.55 34.24 33.59 29.18 32.29 33.86 34.98 36.49 35.65
43.16 43.65 44.27 44.36 44.80 44.85 45.73 46.80 47.74 49.52 48.60 45.22 44.41 44.66 39.10 34.84 37.63 37.30 38.13 39.31 37.84 38.28 37.91 38.35 40.56 38.60 41.22 45.81 44.74 43.55 41.79 40.60 40.62 39.77 40.51 35.91 34.80 33.81 28.75 31.03 20.89 33.98 39.47 38.72 36.63 37.61 38.39
42.72 43.31 43.38 43.46 44.56 45.23 45.09 45.82 46.70 46.09 49.24 45.23 46.84 44.53 40.11 34.93 37.44 37.77 38.82 38.45 39.62 40.20 36.02 36.77 38.85 42.72 44.84 42.60 36.20 32.69 32.46 33.33 35.14 37.71 37.73 38.41 35.30 30.65 26.49 26.28 30.70 33.90 37.03 36.86 35.36 35.05 39.90
42.29 42.65 43.05 43.23 44.14 44.41 44.96 45.36 46.12 45.32 48.96 45.63 45.60 48.23 44.53 37.38 35.80 39.77 37.81 39.63 36.30 34.55 35.67 37.42 42.71 45.41 43.30 37.61 32.94 26.96 24.98 29.37 29.32 32.71 38.30 37.30 37.45 31.32 28.96 23.12 20.75 33.21 39.27 42.41 40.56 30.13 40.88
42.06 42.33 42.85 42.82 42.90 43.63 43.85 44.61 45.50 47.13 47.97 46.33 45.31 50.36 46.41 39.47 40.74 40.67 37.32 37.93 40.28 36.79 34.90 37.72 38.50 38.30 42.43 34.41 30.01 27.46 27.87 33.64 27.71 28.71 30.05 31.22 31.29 27.86 27.74 25.92 29.89 37.67 40.65 42.20 28.75 31.69 41.46
41.71 42.25 42.49 42.87 42.29 42.29 42.55 44.18 45.41 46.83 47.60 46.28 45.02 50.21 46.13 41.26 41.08 42.64 42.86 39.65 39.02 39.02 34.40 38.05 37.13 37.48 35.79 31.59 30.28 30.41 29.69 32.34 31.34 33.38 32.50 30.76 28.71 28.14 29.36 26.38 23.64 41.13 39.94 33.82 39.63 42.62 42.31
41.35 42.16 42.62 42.69 41.92 42.03 42.71 44.66 45.79 47.05 47.31 47.12 42.47 47.89 48.47 41.10 39.55 44.53 45.76 46.58 45.08 43.57 40.30 39.71 38.05 37.62 37.87 33.34 33.68 34.02 31.39 34.42 32.25 28.06 36.90 29.44 34.46 31.57 33.08 32.66 40.46 43.45 41.26 43.19 44.35 42.50 43.01
MSLP
1018.94 1019.08 1019.14 1019.22 1019.49 1019.66 1019.76 1020.03 1020.12 1020.38 1020.50 1020.16 1020.34 1020.53 1020.51 1020.19 1020.32 1020.01 1019.85 1019.80 1019.63 1019.54 1018.69 1018.46 1017.80 1017.17 1016.13 1013.17 1011.23 1011.55 1011.73 1011.44 1011.42 1010.71 1009.74 1009.11 1008.27 1008.17 1007.59 1007.47 1007.31 1007.01 1006.61 1006.88 1006.80 1007.04 1007.33
1018.37 1018.65 1018.84 1018.70 1019.01 1019.34 1019.41 1019.58 1019.68 1020.11 1020.21 1019.97 1020.22 1020.28 1020.33 1020.07 1020.18 1019.91 1019.83 1019.50 1019.64 1019.53 1018.86 1018.70 1017.96 1017.64 1016.04 1013.05 1010.54 1010.76 1010.89 1010.82 1010.65 1010.42 1009.88 1009.75 1009.37 1009.04 1008.40 1007.84 1007.93 1007.63 1007.46 1007.02 1006.78 1006.80 1007.00
1018.29 1018.16 1018.43 1018.33 1018.79 1018.82 1019.03 1019.06 1019.42 1019.68 1019.84 1019.90 1020.06 1020.09 1019.91 1019.68 1019.74 1019.80 1019.73 1019.46 1019.29 1019.13 1018.92 1018.58 1018.15 1017.86 1015.67 1012.47 1010.47 1010.34 1010.77 1010.74 1010.82 1010.65 1010.21 1010.10 1010.11 1009.78 1009.01 1007.98 1007.96 1008.04 1007.77 1006.97 1006.07 1006.48 1006.99
1018.27 1018.50 1018.15 1018.17 1018.31 1018.57 1018.74 1018.76 1019.03 1019.48 1019.62 1019.79 1020.08 1019.80 1019.71 1019.61 1019.30 1019.68 1019.47 1019.32 1019.18 1018.97 1018.52 1018.32 1018.23 1017.45 1014.35 1011.06 1010.40 1010.37 1010.53 1010.48 1010.64 1010.71 1010.57 1010.35 1010.39 1009.97 1009.46 1008.74 1008.01 1007.53 1007.28 1006.41 1005.09 1005.94 1007.15
1018.53 1018.49 1018.36 1018.55 1018.59 1018.41 1018.82 1019.03 1019.20 1019.10 1019.41 1019.95 1019.94 1019.74 1019.63 1019.72 1019.27 1019.33 1019.21 1019.03 1018.87 1018.60 1018.16 1018.07 1017.47 1016.23 1012.72 1011.02 1010.44 1010.05 1010.18 1010.17 1010.22 1010.52 1010.56 1010.70 1010.30 1009.72 1008.97 1008.63 1007.79 1006.45 1006.04 1005.62 1005.51 1005.96 1006.47
1018.16 1018.40 1018.33 1018.47 1018.81 1018.53 1018.72 1018.84 1019.17 1019.47 1019.37 1019.89 1019.82 1019.66 1019.49 1019.66 1019.22 1019.05 1019.20 1018.79 1018.00 1018.16 1016.82 1016.50 1015.99 1015.25 1011.86 1010.45 1009.70 1009.84 1009.86 1009.97 1010.20 1010.21 1010.19 1010.05 1009.64 1009.09 1008.54 1007.87 1006.91 1006.25 1005.83 1005.59 1005.40 1005.82 1006.42
1017.74 1018.00 1018.15 1018.39 1018.45 1018.49 1018.67 1018.80 1019.11 1019.35 1019.49 1019.48 1019.74 1019.67 1019.10 1019.62 1019.12 1019.07 1019.28 1018.25 1017.69 1016.54 1016.01 1014.20 1012.63 1012.09 1010.27 1009.80 1010.39 1010.09 1009.87 1010.14 1010.23 1010.09 1009.69 1009.16 1008.59 1007.92 1007.50 1007.33 1007.23 1007.39 1007.17 1006.47 1006.05 1005.86 1006.00
1017.62 1017.99 1017.85 1018.14 1018.30 1018.27 1018.31 1018.71 1018.96 1019.07 1019.24 1019.16 1019.57 1019.39 1019.35 1019.06 1019.10 1018.97 1019.40 1017.84 1016.16 1016.47 1014.86 1013.43 1012.39 1011.00 1010.49 1010.08 1009.75 1009.61 1009.55 1010.02 1009.75 1009.57 1009.14 1008.78 1007.83 1007.63 1007.46 1007.80 1008.14 1008.12 1007.67 1007.10 1006.56 1006.16 1006.46
1017.37 1017.67 1017.67 1017.89 1017.98 1018.20 1018.38 1018.50 1018.60 1018.68 1018.97 1019.17 1019.41 1019.34 1019.37 1019.07 1018.91 1019.24 1018.57 1016.95 1016.06 1015.98 1014.63 1011.98 1010.61 1009.46 1009.65 1009.91 1009.14 1009.09 1009.06 1009.55 1009.68 1009.33 1008.93 1008.48 1007.56 1007.52 1007.96 1007.91 1007.97 1008.22 1007.97 1007.35 1007.26 1007.09 1007.06
1017.29 1017.43 1017.41 1017.59 1017.84 1017.82 1018.12 1018.22 1018.54 1018.39 1018.80 1019.13 1019.22 1019.69 1019.45 1019.16 1019.58 1018.08 1017.38 1016.38 1016.04 1016.52 1014.13 1010.08 1008.60 1008.10 1008.45 1008.90 1008.38 1008.65 1008.72 1009.07 1009.29 1009.09 1009.02 1008.19 1007.69 1007.32 1007.57 1007.96 1007.99 1007.81 1008.06 1008.24 1008.22 1008.44 1007.68
1017.07 1017.21 1017.09 1017.33 1017.61 1017.65 1017.76 1017.97 1018.18 1018.39 1018.67 1018.96 1019.23 1019.25 1019.01 1019.50 1018.27 1017.00 1017.33 1015.98 1016.70 1016.61 1013.63 1008.32 1007.95 1008.56 1008.25 1008.72 1008.69 1008.43 1008.27 1008.61 1008.76 1008.82 1009.16 1008.00 1007.31 1007.77 1008.01 1007.95 1008.09 1008.26 1008.66 1009.24 1009.15 1008.85 1008.32
1016.61 1016.79 1016.86 1016.99 1017.30 1017.63 1017.64 1017.64 1017.94 1018.28 1018.55 1018.78 1018.87 1019.00 1019.25 1019.56 1018.92 1017.29 1017.18 1017.23 1017.27 1016.59 1011.77 1008.56 1008.44 1008.71 1008.99 1009.21 1009.01 1008.94 1009.10 1009.37 1008.99 1009.00 1008.25 1008.32 1007.97 1008.17 1008.26 1008.27 1008.98 1009.43 1009.61 1009.52 1009.13 1008.89 1008.40
1016.46 1016.27 1016.44 1016.59 1016.88 1017.30 1017.34 1017.43 1017.87 1018.27 1018.43 1018.62 1018.80 1018.97 1019.41 1018.57 1018.06 1017.41 1017.43 1017.58 1017.77 1014.37 1010.29 1008.58 1008.36 1008.77 1008.88 1008.96 1009.24 1009.34 1009.39 1009.38 1008.78 1008.76 1008.25 1008.31 1007.94 1008.33 1008.83 1008.90 1009.02 1009.61 1009.98 1009.60 1008.71 1008.19 1007.96
1016.01 1016.08 1015.85 1016.18 1016.52 1016.85 1017.01 1017.16 1017.61 1018.10 1018.27 1018.36 1018.82 1018.68 1018.51 1018.47 1018.42 1017.78 1017.82 1017.78 1015.91 1011.71 1010.61 1008.94 1008.75 1008.61 1008.76 1008.69 1008.98 1009.30 1009.36 1009.07 1008.85 1008.24 1007.96 1007.74 1007.60 1007.70 1008.49 1009.03 1008.75 1008.83 1009.42 1009.87 1009.62 1009.64 1009.03
1015.63 1015.76 1015.72 1015.79 1016.08 1016.27 1016.54 1016.93 1017.26 1017.67 1018.07 1018.36 1018.72 1018.26 1018.08 1017.78 1018.46 1018.49 1018.26 1016.74 1012.85 1011.61 1010.10 1009.05 1009.09 1008.58 1008.68 1008.73 1009.14 1009.35 1009.05 1009.02 1008.41 1008.48 1008.42 1007.96 1007.72 1008.11 1008.71 1009.05 1009.51 1009.37 1009.67 1010.24 1010.78 1011.15 1010.88
1015.34 1015.35 1015.42 1015.42 1015.62 1015.78 1016.05 1016.26 1016.90 1017.36 1017.74 1018.32 1018.16 1017.90 1017.33 1017.31 1018.21 1018.78 1017.91 1015.01 1012.73 1011.31 1009.79 1009.30 1008.55 1008.64 1008.76 1008.53 1009.16 1009.27 1008.74 1008.31 1008.31 1008.52 1008.65 1008.98 1008.89 1008.71 1009.01 1009.81 1010.02 1009.98 1010.17 1010.72 1011.36 1011.81 1011.43
1014.94 1015.14 1015.04 1014.99 1015.18 1015.18 1015.39 1015.88 1016.34 1016.87 1017.47 1017.87 1018.19 1017.42 1015.89 1017.05 1017.98 1018.02 1016.43 1014.32 1013.20 1011.86 1010.48 1009.98 1009.21 1008.83 1008.86 1008.73 1008.97 1008.95 1008.44 1008.25 1008.50 1009.07 1009.65 1009.84 1010.48 1009.85 1009.54 1009.72 1009.78 1009.65 1010.28 1010.74 1011.38 1011.95 1011.84
1014.46 1014.65 1014.70 1014.67 1014.74 1014.73 1014.87 1015.26 1015.72 1016.26 1017.05 1017.58 1017.71 1017.15 1016.38 1016.88 1017.71 1017.33 1015.91 1014.29 1013.45 1012.20 1011.35 1010.37 1009.64 1009.54 1009.38 1009.53 1009.36 1009.09 1008.83 1008.64 1009.02 1009.44 1010.01 1010.47 1010.40 1010.41 1010.02 1009.89 1009.52 1009.64 1010.27 1010.85 1011.50 1012.10 1012.36
1013.79 1013.97 1014.05 1014.22 1014.36 1014.31 1014.44 1014.51 1015.14 1015.59 1016.38 1016.72 1016.73 1016.93 1016.87 1016.82 1016.37 1015.53 1014.78 1014.08 1013.53 1012.48 1011.74 1010.79 1010.02 1009.75 1009.57 1009.79 1009.47 1009.27 1009.12 1009.63 1009.58 1010.00 1010.39 1010.76 1011.17 1011.02 1010.81 1010.51 1009.80 1010.04 1010.77 1010.99 1011.53 1012.44 1012.73
1012.99 1013.22 1013.32 1013.77 1013.69 1013.78 1013.87 1014.04 1014.41 1014.96 1015.49 1015.97 1016.19 1016.45 1016.63 1016.02 1015.14 1014.26 1014.00 1013.58 1013.07 1012.59 1012.08 1010.95 1010.64 1010.02 1010.18 1010.13 1009.89 1009.61 1009.63 1010.51 1010.75 1010.62 1011.21 1011.33 1011.47 1011.47 1011.30 1010.61 1010.85 1010.99 1011.07 1010.83 1011.46 1012.19 1012.50
1012.29 1012.51 1012.55 1012.81 1013.10 1013.10 1013.38 1013.35 1013.77 1014.17 1014.88 1015.32 1015.05 1014.65 1014.43 1014.49 1014.44 1013.97 1013.38 1012.74 1012.39 1012.11 1011.56 1011.26 1011.40 1010.81 1010.16 1010.28 1010.08 1009.75 1009.89 1010.74 1011.42 1011.82 1011.80 1012.19 1012.28 1012.47 1012.23 1011.87 1011.59 1011.39 1011.32 1011.66 1011.79 1011.89 1012.13
1011.42 1011.60 1011.78 1012.05 1012.25 1012.53 1012.64 1012.77 1012.88 1013.46 1014.29 1014.70 1013.45 1012.24 1012.41 1012.48 1012.79 1013.71 1013.12 1012.44 1011.94 1011.15 1011.75 1011.72 1011.16 1010.95 1010.43 1009.51 1009.66 1009.96 1010.31 1010.41 1011.02 1011.89 1012.14 1012.38 1012.82 1013.38 1013.40 1012.96 1012.47 1011.85 1011.76 1011.77 1011.82 1011.73 1011.64
1010.61 1010.77 1010.94 1011.21 1011.46 1011.68 1011.88 1012.00 1012.13 1012.51 1013.26 1013.19 1013.45 1011.58 1011.20 1011.22 1011.21 1012.10 1011.57 1011.30 1011.03 1011.19 1011.43 1012.51 1012.31 1011.35 1010.31 1009.52 1009.59 1009.82 1010.14 1010.39 1010.43 1011.06 1011.78 1012.54 1012.91 1013.47 1013.21 1012.71 1011.93 1011.21 1010.98 1010.97 1010.92 1010.85 1010.91
1009.90 1009.93 1010.10 1010.36 1010.60 1010.77 1011.01 1011.18 1011.31 1011.55 1011.38 1012.39 1012.39 1012.23 1011.24 1010.26 1009.88 1010.15 1010.68 1011.39 1011.31 1011.78 1012.01 1012.66 1012.49 1011.86 1011.40 1010.67 1011.06 1011.12 1011.27 1011.27 1011.31 1011.49 1011.71 1012.30 1013.00 1013.40 1013.29 1013.03 1012.06 1010.92 1010.28 1010.03 1009.77 1009.81 1009.89
1009.05 1009.19 1009.32 1009.53 1009.62 1009.84 1010.11 1010.40 1010.56 1010.95 1010.55 1011.63 1011.87 1011.58 1010.57 1009.80 1009.15 1009.19 1009.64 1009.85 1010.59 1011.90 1012.88 1013.14 1012.73 1011.80 1012.15 1011.28 1011.34 1011.74 1012.12 1012.01 1011.71 1011.76 1012.06 1012.59 1013.05 1013.32 1013.34 1012.76 1011.60 1010.50 1009.69 1009.30 1009.41 1009.61 1009.68
1008.06 1008.23 1008.46 1008.63 1008.77 1008.98 1009.26 1009.46 1009.69 1009.76 1009.68 1010.74 1011.56 1011.17 1010.44 1009.60 1008.75 1008.26 1008.47 1009.29 1010.76 1012.23 1012.89 1012.72 1012.86 1011.88 1011.81 1011.76 1011.84 1011.63 1011.19 1011.45 1011.09 1010.94 1011.22 1012.13 1012.90 1013.57 1013.36 1012.77 1011.25 1009.97 1009.02 1009.38 1009.75 1009.82 1010.19
1007.07 1007.24 1007.48 1007.70 1007.88 1008.12 1008.44 1008.55 1008.77 1009.06 1008.57 1010.18 1010.85 1010.54 1010.24 1009.70 1008.99 1008.77 1008.82 1008.74 1010.13 1011.86 1012.33 1011.94 1012.13 1012.66 1012.65 1012.33 1011.93 1011.85 1011.37 1011.00 1010.48 1010.16 1011.10 1011.29 1012.14 1012.58 1012.79 1012.27 1010.91 1009.89 1009.27 1009.70 1010.13 1010.64 1010.79
1006.09 1006.22 1006.41 1006.67 1006.95 1007.33 1007.52 1007.66 1007.84 1008.33 1008.72 1009.66 1009.90 1010.07 1010.12 1010.18 1009.97 1009.56 1009.29 1009.36 1009.91 1010.72 1011.11 1011.97 1012.48 1012.54 1012.45 1012.11 1011.96 1011.65 1011.10 1010.50 1010.14 1009.74 1009.87 1010.41 1011.06 1011.38 1011.86 1011.53 1010.36 1009.54 1009.65 1009.86 1009.77 1009.98 1010.31
1005.15 1005.16 1005.28 1005.54 1006.02 1006.38 1006.36 1006.40 1006.60 1007.20 1008.06 1008.96 1009.45 1010.10 1010.65 1011.03 1011.79 1011.29 1010.37 1009.91 1009.92 1010.32 1011.02 1011.76 1011.41 1011.29 1011.50 1011.85 1011.80 1011.39 1010.81 1010.07 1009.88 1009.48 1009.53 1009.54 1009.52 1009.98 1010.02 1009.77 1009.96 1009.55 1009.90 1009.87 1009.89 1009.89 1010.24
Wind_Speed
14 14 13 13 13 12 12 11 10 10 10 8 9 9 10 10 12 11 12 12 11 14 12 16 18 22 16 11 12 8 6 7 12 10 8 8 5 8 10 7 8 9 5 4 6 3 5
14 14 14 13 13 13 13 12 10 10 9 7 8 8 10 10 12 12 13 11 11 13 12 15 15 21 11 18 2 2 3 3 8 10 8 8 7 8 7 8 8 10 11 12 12 10 9
2 11 13 12 13 13 13 12 11 10 8 7 6 6 8 9 10 12 13 13 11 11 13 13 12 10 15 21 8 4 4 6 3 6 8 5 8 9 11 8 7 8 15 16 16 11 6
5 7 4 6 1 6 8 7 8 5 1 3 7 8 8 9 8 10 12 14 12 12 14 12 11 6 10 17 10 7 9 8 6 6 5 4 8 10 9 10 12 15 15 16 20 13 8
5 4 1 3 3 5 3 3 3 3 1 6 7 8 9 10 9 9 10 12 15 16 14 10 9 9 14 4 10 12 12 11 9 6 5 5 6 9 11 11 12 14 13 14 10 12 9
8 7 6 5 5 3 4 3 2 2 2 7 6 7 8 10 8 7 9 10 15 10 13 11 9 11 18 15 3 3 7 9 7 7 9 12 7 10 11 12 11 12 7 10 13 11 9
7 7 7 7 8 7 6 7 6 6 5 5 6 7 6 9 7 7 6 10 8 8 9 11 8 13 13 6 4 9 10 9 11 12 12 13 13 12 15 17 10 9 15 16 15 16 18
8 9 8 8 8 9 9 9 8 8 7 5 7 7 8 6 7 1 3 6 6 6 13 17 23 24 22 23 9 13 14 9 15 16 15 13 16 17 11 5 8 12 16 18 16 15 5
8 9 9 8 8 7 9 9 9 8 6 6 7 6 7 5 5 2 9 13 5 9 10 21 24 23 25 21 24 18 16 14 16 16 15 17 17 1 5 10 14 12 16 15 13 13 15
9 10 10 10 10 9 9 11 10 8 7 7 5 7 5 7 2 8 12 13 0 6 9 10 9 8 22 18 23 18 22 18 17 17 16 16 20 18 9 12 13 10 7 8 10 13 13
9 11 10 11 11 10 10 11 10 8 8 6 5 4 3 13 9 8 5 3 3 4 8 6 10 4 2 13 2 12 18 16 18 17 13 16 9 5 12 14 4 8 8 8 13 16 16
9 10 11 12 12 11 10 11 11 10 8 7 5 3 2 5 3 4 3 4 2 5 12 6 8 8 11 15 13 4 5 10 11 18 18 17 1 3 10 6 1 9 10 16 16 13 12
11 11 12 13 12 12 10 11 10 9 9 8 7 5 5 2 6 8 3 5 4 9 3 7 6 10 14 14 17 9 13 13 10 7 11 15 17 11 6 8 11 9 10 7 7 7 10
12 12 12 13 14 13 12 13 12 11 10 8 7 5 7 9 6 6 4 6 13 10 19 6 0 12 14 12 15 12 11 13 17 13 9 13 11 16 11 13 7 10 7 4 7 7 11
13 14 13 14 14 15 14 13 13 12 10 7 7 6 7 8 6 5 7 12 12 17 16 14 8 8 13 12 4 13 14 15 15 13 7 2 6 9 6 3 2 7 5 4 6 9 7
14 14 15 14 15 16 15 14 15 13 12 11 5 4 7 8 8 3 6 21 19 17 14 11 18 12 13 17 11 13 12 10 13 1 3 4 3 6 8 6 10 11 9 4 3 4 8
15 16 15 15 15 15 17 16 17 16 14 13 3 4 4 12 5 2 11 16 24 27 18 12 13 15 14 13 12 15 7 8 7 5 4 4 4 5 10 8 11 10 11 10 11 11 8
15 15 15 15 15 14 16 18 18 19 16 12 4 5 8 9 7 3 9 24 12 24 13 15 9 14 17 16 15 17 17 17 11 7 7 9 6 7 12 13 16 10 9 11 4 10 8
18 16 16 16 16 16 16 18 20 21 21 9 4 5 2 4 10 9 13 15 22 23 11 12 13 15 5 7 3 12 13 9 6 9 1 8 4 5 11 11 13 6 10 14 9 3 8
18 18 17 18 16 17 18 18 21 23 25 11 5 5 4 3 10 19 19 24 22 14 19 16 15 10 7 5 8 5 8 5 3 4 8 3 6 8 8 9 5 8 13 10 9 5 10
19 19 18 18 17 16 18 19 21 24 26 12 6 7 7 5 14 19 19 15 24 13 20 19 14 17 12 9 14 10 9 8 6 5 5 3 6 10 12 13 13 14 14 11 15 15 15
21 20 20 20 18 16 18 20 21 26 26 11 4 9 11 9 17 22 17 13 20 21 8 6 13 17 15 13 13 12 10 13 9 11 10 9 4 2 4 12 14 18 11 16 17 17 18
22 21 20 21 21 20 19 20 21 27 27 8 9 10 3 11 17 16 21 21 20 17 17 14 21 22 17 14 12 10 1 6 11 12 13 9 7 7 12 13 14 14 10 12 17 16 16
22 22 21 22 23 21 20 19 20 27 29 4 7 9 8 7 13 17 22 23 17 16 15 3 8 10 3 4 8 6 3 2 3 5 5 8 11 8 9 10 15 9 14 13 15 12 15
22 22 22 22 23 21 20 20 22 21 35 11 6 10 6 11 12 18 22 22 19 7 4 4 8 9 9 7 5 4 4 5 10 12 13 12 10 6 8 9 13 17 12 12 13 13 9
22 21 22 21 21 21 20 20 21 20 31 16 9 10 6 9 11 16 16 19 9 4 7 13 13 4 3 3 4 9 8 8 9 8 21 16 11 8 7 10 8 9 2 10 5 6 8
22 21 22 21 21 19 19 20 21 23 25 14 8 12 4 3 1 4 8 13 12 11 7 12 8 3 5 4 6 8 11 12 13 13 7 11 11 12 10 10 11 13 6 7 7 2 4
21 21 23 22 21 20 23 24 23 26 27 20 4 5 3 3 5 2 4 8 6 6 6 4 9 5 5 5 6 6 7 10 14 13 11 11 9 10 12 14 16 13 1 5 3 4 6
21 21 22 20 20 23 26 24 24 27 28 20 5 6 4 5 3 6 6 4 13 11 6 4 5 8 6 6 5 6 7 6 11 9 13 12 9 9 9 5 6 7 7 8 11 8 5
Wind_Direction
227 225 223 222 226 227 228 232 240 247 252 251 260 271 279 287 291 297 298 306 317 315 328 326 331 327 328 309 283 141 224 224 270 293 315 340 9 352 334 349 317 271 332 335 298 271 254
225 227 227 223 226 230 230 228 232 243 250 257 261 270 278 285 288 291 293 302 308 310 318 317 331 328 293 282 0 138 247 276 269 307 314 353 349 327 276 311 294 344 300 285 276 253 253
309 238 231 229 231 227 228 225 230 236 253 268 267 267 274 280 283 286 290 294 296 299 301 308 324 322 289 261 282 256 208 272 297 305 313 8 336 322 339 288 25 287 288 283 249 226 232
31 2 59 68 117 247 239 205 159 149 207 284 292 286 286 282 280 283 288 291 292 286 285 293 305 307 263 285 290 252 254 230 230 262 288 306 320 294 273 297 285 263 262 267 271 160 146
218 247 356 13 96 114 115 140 163 152 229 292 302 311 300 289 290 282 283 286 289 277 270 269 279 208 273 186 232 239 235 235 202 243 247 297 283 268 281 255 274 240 238 276 198 172 162
227 231 225 227 246 195 185 187 235 247 241 281 295 314 320 300 293 292 300 286 275 291 252 245 242 284 241 268 111 226 214 241 227 251 263 232 241 245 243 250 266 322 307 311 303 180 208
237 227 227 233 224 222 217 208 211 228 248 265 290 303 332 308 312 321 321 282 242 203 226 235 274 229 303 211 148 228 195 210 236 246 256 271 253 248 285 307 340 314 296 296 284 290 301
228 233 230 239 247 237 224 217 215 218 224 226 270 299 311 313 303 359 279 257 339 320 288 269 249 257 267 283 267 244 206 214 223 243 256 257 245 252 279 318 299 294 283 276 275 268 276
234 237 236 238 240 245 237 223 210 212 230 236 254 275 289 322 108 131 244 264 301 323 268 273 249 243 248 242 249 239 205 219 251 262 253 253 259 261 268 268 268 262 260 269 287 320 305
247 241 236 234 234 231 239 225 212 198 210 220 236 268 311 131 180 220 233 260 22 327 280 270 222 241 237 231 252 238 239 222 230 250 259 267 262 252 233 258 258 255 329 332 296 289 280
258 246 236 232 232 236 246 223 199 196 205 222 233 269 150 219 342 214 350 150 16 259 281 5 126 56 194 187 315 209 224 237 242 246 227 258 254 220 248 251 321 271 341 291 283 279 284
261 255 240 231 229 237 239 214 195 191 208 217 220 236 183 247 254 287 112 40 290 241 244 241 134 182 177 202 235 135 196 236 230 245 246 247 338 265 251 294 268 289 289 272 253 248 254
275 251 248 238 227 231 227 201 192 197 200 210 212 219 208 207 231 240 157 142 211 232 236 202 178 183 198 195 220 198 195 198 198 201 227 228 240 202 228 241 224 231 258 269 261 229 233
282 275 246 239 230 227 222 199 197 200 200 201 223 222 223 229 297 317 182 193 221 228 233 343 255 182 207 190 209 206 210 208 222 239 262 221 218 201 159 236 293 225 256 293 291 311 307
286 271 261 241 234 225 223 213 196 195 192 197 197 226 240 219 218 279 202 213 225 229 268 220 199 234 216 215 243 201 224 228 219 214 228 276 234 92 131 189 237 350 209 296 305 300 282
286 288 267 249 233 229 223 210 197 191 186 182 215 237 226 215 148 234 217 222 234 248 249 280 257 196 227 215 185 199 201 223 242 103 244 339 291 223 197 177 258 258 294 283 243 243 262
280 281 278 259 243 232 223 215 199 187 181 186 229 234 178 149 123 214 219 226 230 260 280 242 245 250 242 248 213 227 220 217 259 153 273 188 159 250 210 199 252 219 228 240 238 237 268
268 272 274 266 253 240 236 222 201 187 180 176 214 233 151 145 175 196 214 222 248 274 232 254 265 259 244 245 244 238 257 235 219 171 201 231 192 230 230 227 235 258 299 300 282 276 287
258 261 266 263 259 247 238 228 207 187 177 185 209 227 248 217 194 217 226 234 236 245 242 244 224 232 248 262 254 222 237 53 141 184 235 148 223 237 250 261 248 238 261 239 233 324 271
262 256 254 258 261 255 241 231 212 188 190 211 179 203 217 222 239 213 214 229 225 227 250 228 237 218 187 226 227 216 197 144 190 220 66 13 239 257 253 302 342 252 254 286 263 220 264
255 256 254 251 257 261 252 234 217 195 203 192 196 209 193 185 223 226 234 230 221 216 223 219 221 218 195 198 222 219 206 185 218 149 178 228 248 261 272 287 303 287 281 294 277 277 266
255 256 251 246 248 258 257 248 223 200 194 215 192 201 181 229 195 221 232 226 236 222 180 239 226 218 221 205 216 238 235 206 187 174 217 203 223 307 289 272 269 270 270 268 261 263 269
257 256 252 245 244 250 259 249 233 210 188 199 225 268 192 236 221 191 215 229 239 231 210 229 233 231 220 233 228 234 238 342 212 204 192 225 234 217 257 257 270 261 229 233 255 266 266
255 257 253 247 243 248 250 257 239 220 194 183 219 239 199 235 215 210 207 216 216 247 232 267 238 229 230 352 69 44 14 307 293 241 260 221 235 236 268 293 269 263 263 255 257 242 241
249 249 249 251 247 243 251 252 241 250 199 192 235 225 229 234 241 209 216 223 230 149 120 180 229 250 179 175 159 194 221 256 246 244 234 234 256 251 243 250 274 282 269 243 246 257 317
249 249 243 251 250 250 250 246 250 232 206 186 232 243 243 225 237 236 216 204 169 146 186 196 225 152 188 187 205 211 206 210 210 215 213 221 217 236 231 248 257 254 282 44 4 280 50
249 249 242 247 251 252 252 258 252 227 185 186 210 224 244 231 252 195 196 189 150 175 191 153 133 157 211 220 201 220 232 254 251 227 195 199 209 220 232 252 265 275 282 152 238 29 124
249 250 244 246 247 257 259 255 246 218 195 195 192 202 221 226 40 349 156 135 141 177 162 159 162 201 184 213 211 218 239 238 244 246 209 187 199 206 227 246 257 253 46 263 353 190 283
252 251 249 240 255 264 265 232 228 207 192 173 158 138 70 66 25 317 341 331 203 191 136 208 186 182 177 198 226 233 253 219 243 247 230 258 238 207 202 213 38 7 27 351 310 309 342